Lake San Cristobal Weather Center

Moon Phase Calendar



Lake San Cristobal Water Level
Online Cameras

 


      

Current Conditions in Lake City
11/25/2020 9:00:35 PM

20°F
Feels Like 12
Clear
Humidity
86%
Pressure
30.03"
Wind
5.9 mph (SSW)
Dew Point
17°F
UV Index
3/10 (Moderate)
Visibility
6 mi

Hourly Forecast

Date & Time Wed, Nov 25
9:00 PM
Wed, Nov 25
10:00 PM
Wed, Nov 25
11:00 PM
Thu, Nov 26
12:00 AM
Thu, Nov 26
1:00 AM
Thu, Nov 26
2:00 AM
Thu, Nov 26
3:00 AM
Thu, Nov 26
4:00 AM
Thu, Nov 26
5:00 AM
Thu, Nov 26
6:00 AM
Thu, Nov 26
7:00 AM
Thu, Nov 26
8:00 AM
Thu, Nov 26
9:00 AM
Thu, Nov 26
10:00 AM
Thu, Nov 26
11:00 AM
Thu, Nov 26
12:00 PM
Thu, Nov 26
1:00 PM
Thu, Nov 26
2:00 PM
Thu, Nov 26
3:00 PM
Thu, Nov 26
4:00 PM
Thu, Nov 26
5:00 PM
Thu, Nov 26
6:00 PM
Thu, Nov 26
7:00 PM
Thu, Nov 26
8:00 PM
Thu, Nov 26
9:00 PM
Thu, Nov 26
10:00 PM
Thu, Nov 26
11:00 PM
Fri, Nov 27
12:00 AM
Fri, Nov 27
1:00 AM
Fri, Nov 27
2:00 AM
Fri, Nov 27
3:00 AM
Fri, Nov 27
4:00 AM
Fri, Nov 27
5:00 AM
Fri, Nov 27
6:00 AM
Fri, Nov 27
7:00 AM
Fri, Nov 27
8:00 AM
Fri, Nov 27
9:00 AM
Fri, Nov 27
10:00 AM
Fri, Nov 27
11:00 AM
Fri, Nov 27
12:00 PM
Fri, Nov 27
1:00 PM
Fri, Nov 27
2:00 PM
Fri, Nov 27
3:00 PM
Fri, Nov 27
4:00 PM
Fri, Nov 27
5:00 PM
Fri, Nov 27
6:00 PM
Fri, Nov 27
7:00 PM
Fri, Nov 27
8:00 PM
Condition
Clear

Clear

Clear

Clear

Clear

Clear

Clear

Clear

Clear

Clear

Clear

Clear

Clear

Clouds

Clouds

Clear

Clouds

Clouds

Clouds

Clouds

Snow

Snow

Snow

Snow

Clouds

Clouds

Clouds

Clouds

Clouds

Clouds

Clouds

Clouds

Clouds

Clear

Clear

Clear

Clear

Clear

Clear

Clear

Clear

Clear

Clouds

Clouds

Clouds

Clouds

Clouds

Clear
Temperature 20°F21°F21°F20°F20°F20°F19°F18°F18°F17°F17°F20°F27°F31°F33°F34°F34°F33°F31°F29°F25°F23°F22°F21°F19°F18°F18°F17°F16°F15°F15°F14°F14°F14°F14°F18°F25°F30°F33°F35°F35°F35°F34°F30°F23°F21°F20°F20°F
Feels Like 12°F12°F12°F12°F12°F11°F11°F10°F9°F9°F9°F13°F20°F25°F28°F29°F29°F28°F26°F24°F20°F18°F17°F16°F14°F13°F12°F11°F10°F9°F8°F7°F7°F6°F6°F10°F19°F24°F28°F29°F29°F30°F29°F24°F16°F15°F15°F14°F
Cloudiness 0%0%0%0%0%0%0%0%0%0%0%0%8%25%27%9%55%70%77%82%83%92%90%90%89%87%86%82%82%80%73%60%52%0%0%0%0%0%0%4%6%9%14%29%33%20%13%8%
Visibility 6 mi6 mi6 mi6 mi6 mi6 mi6 mi6 mi6 mi6 mi6 mi6 mi6 mi6 mi6 mi6 mi6 mi1 mi1 mi2 mi2 mi2 mi2 mi3 mi3 mi3 mi4 mi4 mi5 mi6 mi6 mi6 mi6 mi6 mi6 mi6 mi6 mi6 mi6 mi6 mi6 mi6 mi6 mi6 mi6 mi6 mi6 mi6 mi
Precipitation 0%0%0%0%0%0%0%0%0%0%0%0%0%0%0%0%4%4%17%21%21%24%21%33%12%4%4%0%0%0%0%0%0%0%0%0%0%0%0%0%0%0%4%4%4%0%0%0%
Humidity 86%81%77%75%74%74%75%75%76%77%78%80%80%80%77%75%78%85%90%91%92%91%91%91%90%90%90%90%90%89%89%88%87%85%84%82%81%80%76%73%72%73%77%87%89%89%87%86%
Dew Point 17°F16°F15°F14°F14°F-1°F-2°F-2°F-1°F-1°F0°F4°F9°F12°F14°F16°F18°F20°F21°F21°F18°F16°F15°F13°F12°F11°F10°F9°F8°F7°F6°F6°F5°F3°F2°F4°F9°F11°F13°F14°F15°F16°F17°F18°F14°F12°F10°F9°F
Pressure 30.03"30.06"30.09"30.09"30.09"30.09"30.09"30.06"30.09"30.09"30.09"30.09"30.03"30"30"29.97"29.94"29.94"29.94"29.97"30.06"30.12"30.15"30.18"30.21"30.24"30.27"30.27"30.27"30.3"30.3"30.33"30.33"30.33"30.33"30.33"30.27"30.24"30.18"30.15"30.12"30.12"30.12"30.15"30.18"30.24"30.27"30.3"
Wind Speed 5.9 mph6.3 mph6.1 mph5.5 mph5.1 mph4.9 mph4.2 mph4.5 mph4.9 mph4.8 mph4 mph3.4 mph2.6 mph1.9 mph1.6 mph2.2 mph2.2 mph1.6 mph0.8 mph0.9 mph0.7 mph0.7 mph0.4 mph0 mph0.5 mph0.7 mph0.6 mph0.7 mph0.8 mph1.1 mph2 mph2.7 mph3.4 mph3.5 mph3.5 mph3.6 mph2.8 mph2.7 mph2.7 mph3 mph2.9 mph1.5 mph1.8 mph3.8 mph3.3 mph1.3 mph0.8 mph1.4 mph
Wind
Direction
212°
SSW
209°
SSW
211°
SSW
215°
SW
215°
SW
220°
SW
226°
SW
210°
SSW
204°
SSW
205°
SSW
220°
SW
223°
SW
214°
SW
234°
SW
231°
SW
226°
SW
229°
SW
248°
WSW
296°
WNW
17°
NNE
43°
NE
356°
N

N
84°
E
64°
ENE
64°
ENE
115°
ESE
99°
E
111°
ESE
145°
SE
187°
S
196°
SSW
190°
S
187°
S
190°
S
192°
SSW
174°
S
154°
SSE
152°
SSE
158°
SSE
166°
SSE
147°
SSE
43°
NE
19°
NNE
11°
N
347°
NNW
274°
W
231°
SW

Daily Forecast

Date High Low Precip. Humidity
Today
Nov 25

Clear
42 °F
17 °F
0%
58%
Thursday
Nov 26

Snow
33 °F
18 °F
33%
77%
Friday
Nov 27

Clear
35 °F
14 °F
4%
76%
Saturday
Nov 28

Clear
40 °F
17 °F
0%
60%
Sunday
Nov 29

Clear
38 °F
19 °F
0%
63%
Monday
Nov 30

Clear
37 °F
17 °F
0%
65%
Tuesday
Dec 1

Clouds
34 °F
18 °F
0%
74%
Wednesday
Dec 2

Clear
30 °F
11 °F
4%
72%
Thursday
Dec 3

Snow
28 °F
10 °F
32%
68%
Friday
Dec 4

Clear
34 °F
13 °F
0%
68%
Saturday
Dec 5

Clear
38 °F
17 °F
0%
58%
Sunday
Dec 6

Clear
41 °F
20 °F
0%
53%
Monday
Dec 7

Clouds
37 °F
22 °F
0%
60%
Tuesday
Dec 8

Snow
29 °F
19 °F
62%
84%
Wednesday
Dec 9

Clear
32 °F
15 °F
10%
81%
Thursday
Dec 10

Snow
31 °F
16 °F
47%
72%


Temperature 8-14 Day Outlook



Precipitation 8-14 Day Outlook




Quick Links
Lake San Cristobal News
Lake San Cristobal Photos
Lake San Cristobal Videos




About Us
Contact Us
Site Map
Search Site
Advertise With Us
   
SanCristobal.LakesOnline.com
THE LAKE SAN CRISTOBAL WEBSITE

Copyright 2020, Lakes Online
Privacy    |    Legal